This is the latest recevied weather packets stored in our database for station/object KF0TNT. If no packets are shown the sender has not sent any weather packets the latest 10 day(s).
| Time | Temp. | Humidity | Pressure | Rain* | Wind** | Luminosity | Snow |
|---|---|---|---|---|---|---|---|
| 1777846411 | 17.22° C | 20% | 1016.1 hPa | 0 mm | - | 394 W/m² | - |
| 1777846106 | 17.22° C | 20% | 1016.1 hPa | 0 mm | - | 169 W/m² | - |
| 1777845803 | 17.78° C | 19% | 1016.5 hPa | 0 mm | - | 158 W/m² | - |
| 1777845500 | 17.78° C | 19% | 1016.4 hPa | 0 mm | - | 151 W/m² | - |
| 1777845197 | 18.33° C | 18% | 1016.5 hPa | 0 mm | - | 157 W/m² | - |
| 1777844895 | 18.33° C | 19% | 1016.4 hPa | 0 mm | - | 164 W/m² | - |
| 1777844592 | 18.33° C | 18% | 1016.4 hPa | 0 mm | - | 165 W/m² | - |
| 1777844289 | 18.33° C | 18% | 1016.5 hPa | 0 mm | - | 129 W/m² | - |
| 1777843987 | 18.33° C | 17% | 1016.9 hPa | 0 mm | - | 129 W/m² | - |
| 1777843684 | 18.33° C | 18% | 1016.8 hPa | 0 mm | - | 148 W/m² | - |
| 1777843382 | 18.89° C | 17% | 1016.8 hPa | 0 mm | - | 176 W/m² | - |
| 1777843079 | 18.89° C | 17% | 1016.8 hPa | 0 mm | - | 229 W/m² | - |
| 1777842775 | 19.44° C | 17% | 1017.1 hPa | 0 mm | - | 321 W/m² | - |
| 1777842475 | 18.89° C | 16% | 1017 hPa | 0 mm | - | 361 W/m² | - |
| 1777842173 | 19.44° C | 17% | 1017 hPa | 0 mm | - | 309 W/m² | - |
| 1777841868 | 19.44° C | 16% | 1017 hPa | 0 mm | - | 302 W/m² | - |
| 1777841565 | 19.44° C | 16% | 1017.4 hPa | 0 mm | - | 286 W/m² | - |
| 1777841261 | 19.44° C | 17% | 1017.4 hPa | 0 mm | - | 515 W/m² | - |
| 1777840959 | 20° C | 16% | 1017.7 hPa | 0 mm | - | 362 W/m² | - |
| 1777840656 | 20° C | 16% | 1017.9 hPa | 0 mm | - | 827 W/m² | - |
| 1777840354 | 20.56° C | 16% | 1017.6 hPa | 0 mm | - | 856 W/m² | - |
| 1777840051 | 19.44° C | 16% | 1017.7 hPa | 0 mm | - | 1044 W/m² | - |
| 1777839748 | 19.44° C | 14% | 1018 hPa | 0 mm | - | 1029 W/m² | - |
| 1777839446 | 18.89° C | 14% | 1018 hPa | 0 mm | - | 398 W/m² | - |
| 1777839143 | 18.89° C | 14% | 1018.1 hPa | 0 mm | - | 484 W/m² | - |
* Rain latest hour (hover to see other rain measurements)
** Current wind speed in m/s (hover to see current wind gust speed)